Find Starlink 32324

NORAD ID: 61863 Int'l Des: 2024-202 Owner: SPXS Country: US Constellation: starlink operational
LEOCIRCULAR

Live Position

Loading 3D Globe...

About Starlink 32324

Description loading...

Upcoming Passes

Passes for default location (London). Set your location on the main map for personalized predictions.

Altitude History

Loading altitude history...

Two-Line Element Set

1 61863U 24202U 26126.48159486 -.00000995 00000-0 -26651-4 0 9995
2 61863 43.0036 271.8301 0001324 272.0872 87.9828 15.27564807 84168
Epoch: May 6, 2026 • Age: 12 hours

Current Status

Altitude 484.4 km
Velocity 7.62 km/s
Sub-Earth Point -10.06°S, 32.41°E
Launch Date Nov 7, 2024
Age 1.4 years
Type internet

Technical Details

Classification Payload
Mass 730.00 kg
Dry Mass 700.00 kg
Total Mass 730.00 kg
Length 0.30 m
Diameter 4.10 m
Span 29.00 m
Shape Box + pan
Manufacturer SPXS
Bus Type Starlink V2M
Phase Status In Orbit
Owner/State SPXS/US

Most Searched